Regional Weather Roundup
Issued by NWS

Home | Current Version | Previous Version | Text Only | Print | Product List | Glossary On
Versions: 1 2 3 4 5 6 7 8 9 10 11 12 13 14 15 16 17 18 19 20 21 22 23 24 25 26 27 28 29 30 31 32 33 34 35 36 37 38 39 40 41 42 43 44 45 46 47 48 49 50
000
ASUS43 KMKX 241911
RWRWI

WISCONSIN REGIONAL WEATHER ROUNDUP
NATIONAL WEATHER SERVICE MILWAUKEE/SULLIVAN WI
200 PM CDT THU MAY 24 2018

NOTE: "FAIR" INDICATES FEW OR NO CLOUDS BELOW 12,000 FEET WITH NO
SIGNIFICANT WEATHER AND/OR OBSTRUCTIONS TO VISIBILITY.

WIZ001-002-006>008-014>016-023>028-242000-
NORTHWEST WISCONSIN

CITY           SKY/WX    TMP DP  RH WIND       PRES   REMARKS
SUPERIOR ARPT  FOG       53  52  95 CALM      29.99F VSB 1
ASHLAND        FAIR      79  67  66 S6        30.00F HX  81
HAYWARD        FAIR      79  67  66 SE8       30.01F HX  81
SIREN          PTSUNNY  N/A N/A N/A MISG        N/A
CUMBERLAND     PTSUNNY   82  61  47 S16       29.99F HX  83
RICE LAKE      FAIR      87  62  43 S17       30.00F HX  87
CHETEK         FAIR      86  66  50 SW12G22   30.00F HX  88
LADYSMITH      FAIR      83  65  54 S8        30.03F HX  84
EAU CLAIRE     FAIR      87  65  47 S16G23    29.99F HX  89
MENOMONIE      FAIR      87  64  45 SE10G18   30.00F HX  89
NEW RICHMOND   FAIR      85  60  42 S18G24    29.97F HX  85
OSCEOLA        FAIR      90  60  36 S17G25    29.98F HX  89
$$

WIZ003>005-009-010-017-018-242000-
NORTH CENTRAL WISCONSIN

CITY           SKY/WX    TMP DP  RH WIND       PRES   REMARKS
MANITOWISH WTR FAIR      78  67  68 SE8       30.05F HX  80
ARBOR VITAE    PTSUNNY   80  65  60 SE10G16   30.06F HX  81
WOODRUFF       PTSUNNY   80  65  60 SE10G16   30.06F HX  81
RHINELANDER    PTSUNNY   83  64  52 S8        30.08F HX  84
EAGLE RIVER    FAIR      79  61  54 S3        30.07F HX  81
LAND O LAKES   FAIR      74  65  73 S3        30.09F
PHILLIPS       FAIR      82  67  60 S10       30.04F HX  84
TOMAHAWK       PTSUNNY   81  64  57 S5        30.07F HX  82
MEDFORD        CLOUDY    81  65  57 S13       30.05F HX  83
MERRILL        PTSUNNY   82  65  55 SW9       30.08F HX  84
$$

WIZ029-030-035-036-043>047-242000-
CENTRAL WISCONSIN

CITY           SKY/WX    TMP DP  RH WIND       PRES   REMARKS
WAUSAU         PTSUNNY   81  62  52 S10       30.06F HX  82
MOSINEE        PTSUNNY   81  64  57 S10       30.09F HX  82
MARSHFIELD     PTSUNNY   83  64  52 SW10      30.06F HX  84
STEVENS POINT  PTSUNNY   83  60  45 S9        30.08F HX  83
WAUPACA        FAIR      86  60  40 SE10G16   30.08F HX  85
WAUTOMA        FAIR      85  63  47 S13G20    30.08F HX  86
WISC RAPIDS    FAIR      86  60  41 SW13      30.08F HX  86
CAMP DOUGLAS   PTSUNNY   84  64  51 S8G20     30.06F HX  86
$$

WIZ011>013-019>022-031-037>040-048>050-242000-
NORTHEAST WISCONSIN

CITY           SKY/WX    TMP DP  RH WIND       PRES   REMARKS
ANTIGO         FAIR      83  61  47 W6        30.09F HX  83
SHAWANO        FAIR      85  60  42 SW7       30.07F HX  85
OCONTO         FAIR      83  55  38 S9        30.07F HX  82
STURGEON BAY   FAIR      77  55  46 S13       30.10F
GREEN BAY      FAIR      83  58  42 SW10      30.09F HX  83
MANITOWOC      FAIR      68  54  60 SE9       30.12F
APPLETON       MOSUNNY   82  55  39 S12       30.08F HX  82
CLINTONVILLE   FAIR      85  57  38 S12       30.07F HX  84
OSHKOSH        FAIR      82  62  50 S9        30.09F HX  83
$$

WIZ032>034-041-042-053>061-242000-
SOUTHWEST WISCONSIN

CITY           SKY/WX    TMP DP  RH WIND       PRES   REMARKS
LA CROSSE      FAIR      87  67  51 S13       30.03F HX  90
SPARTA         PTSUNNY   83  65  53 S12G18    30.06F HX  85
VIROQUA        PTSUNNY   82  65  55 S8        30.09F HX  83
BOSCOBEL       FAIR      87  66  49 SW7       30.07F HX  89
PRAIRIE DU CHI FAIR      85  63  48 SE7       30.06F HX  85
PLATTEVILLE    FAIR      82  65  56 S10       30.11F HX  84
$$

WIZ056-057-062-063-064-067-068-242000-
SOUTH CENTRAL WISCONSIN

CITY           SKY/WX    TMP DP  RH WIND       PRES   REMARKS
REEDSBURG      FAIR      83  64  53 S10       30.08F HX  85
BARABOO/DELLS  FAIR      85  58  39 S9        30.09F HX  84
LONE ROCK      PTSUNNY   84  64  50 S16       30.07F HX  85
MINERAL POINT  FAIR      84  61  45 S6        30.11F HX  84
MADISON        PTSUNNY   84  61  45 S14       30.09F HX  84
MIDDLETON      FAIR      84  61  46 S6G16     30.10F HX  84
WATERTOWN      FAIR      83  60  45 S7        30.11S HX  83
MONROE         FAIR      82  54  36 SW12      30.12F HX  81
JANESVILLE     MOSUNNY   86  55  35 S8        30.11F HX  84
$$

WIZ051-052-058>065-066-070>072-242000-
SOUTHEAST WISCONSIN

CITY           SKY/WX    TMP DP  RH WIND       PRES   REMARKS
MILWAUKEE      PTSUNNY   79  61  53 SE14      30.12F HX  80
WAUKESHA       SUNNY     81  55  41 S8        30.14F HX  80
MILWAUKEE/TIMM SUNNY     82  48  30 S5        30.12F HX  81
RACINE         FAIR      76  55  48 S15       30.15F
BURLINGTON     FAIR      84  58  41 S7        30.12F HX  84
KENOSHA        FAIR      81  58  45 SE14      30.13F HX  81
FOND DU LAC    FAIR      82  59  45 SW12      30.10F HX  82
SHEBOYGAN      FAIR      77  57  50 S9        30.12F
WEST BEND      FAIR      82  55  39 CALM      30.11F HX  82
JUNEAU         FAIR      81  58  45 S9        30.12F HX  81
$$

LSZ147-162-242000-
LAKE SUPERIOR

STATION/POSITION TIME  TEMP    WIND        PRES    WAVE
                       AIR SEA DIR/SP/G            HT/PER
                 (UTC) (F)     (DEG/KT/KT) (MB)    (FT/S)
W MID LAKE BUOY  1850   44 36  110/  4/  6 1016.7F   0
DEVILS ISLAND    1900   46      80/  7/  7 1016.4F
SAXON HARBOR     1840          320/  5/  7 1015.6F
$$

LMZ867-665-643>646-242000-
LAKE MICHIGAN

STATION/POSITION TIME  TEMP    WIND        PRES    WAVE
                       AIR SEA DIR/SP/G            HT/PER
                 (UTC) (F)     (DEG/KT/KT) (MB)    (FT/S)
N MID LAKE BUOY  1850   43 38  190/ 10/ 12 1019.8F   1/ 3
NORTHPORT PIER   1840   63     160/  3/  6 1019.3F
KEWAUNEE LAKESHO 1848   51     170/ 12/ 14 1019.3F
SHEBOYGAN LAKESH 1900   50     150/ 15/ 16 1020.0F
PORT WASHINGTON  1830   56     130/  4/  4 1021.3F
ATWATER BUOY     1807   54 51  180/  8/  8 1020.6    1/ 2
MILWAUKEE LAKESH 1850   57      40/  1/  2   N/A
S MID LAKE BUOY  1850   52 40  150/  8/  8 1021.7F   0
KENOSHA   LAKESH 1900   62                 1020.0
$$

TC  - TEMPERATURE IN CELSIUS
VSB - VISIBILITY IN STATUTE MILES
WCI - WIND CHILL INDEX
HX  - HEAT INDEX




USA.gov is the U.S. government's official web portal to all federal, state and local government web resources and services.